Location: La Pernelle
(49.6188°N, 1.2999°W)
Time: 09:25:17
(UTC+00:00)

Meteor 2-20 - Pass Details

Date: 23 October 2021
Orbit: 939 x 958 km, 82.5° (Epoch: 08 December)

Event Time Altitude Azimuth Distance (km) Brightness Sun altitude
Rises 03:55:01 0° 129° (SE) 3,611 8.0 -27.1°
Reaches altitude 10° 03:58:49 10° 106° (ESE) 2,668 7.5 -26.5°
Maximum altitude 04:01:44 14° 77° (ENE) 2,394 7.5 -26.1°
Drops below altitude 10° 04:04:39 10° 48° (NE) 2,671 7.6 -25.6°
Sets 04:08:26 0° 24° (NNE) 3,619 8.0 -25.0°
